THORAD DELTA 1 DEB, 8788

Orbit data source: Space-Track

THORAD DELTA 1 DEB, 8788 is space debris in SSO originally from a launch on Fri, 15 Nov 1974 UTC launched from the Air Force Western Test Range (AFWTR). Debris objects in space refer to the collection of defunct objects orbiting the Earth. Examples of debris include non-operational satellites, rocket bodies, and fragments generated from explosions, collisions, or faulty payload assembly.

Loading next visibility...
Identifier
8788, 1974-089DQ
Orbit
SSO
Country
Flag of USUS
Related business
Manufacturer
Unknown
Mission
Spacecraft
Bus & Motor
Unknown
Mass
Unknown
Launch date (UTC)
1974-11-15 (51 years ago)
Launch vehicle
Unknown
Launch site
Air Force Western Test Range (AFWTR)
Object type
Payload
Rocket body
Debris
Shape & HBR
Unknown shape, 0.2 m
Radar Cross Section
Small (<0.1 m²)

Expand to show TLE details & history
Last TLE update: 4 days ago

TLE from 4 days ago
0 THORAD DELTA 1 DEB
1 08788U 74089DQ  26019.55734400  .00000020  00000-0  48266-3 0  9996
2 08788 102.0891 120.2124 0069834   0.6089  18.6147 12.39825450316724
Epoch: 2026-01-19T13:22Z
TLE epoch observation values (Epoch: 2026-01-19T13:22:34.521Z)
Latitude
19.0329°
Longitude
156.40035°
Altitude
1,457.272 km
Speed
7.159 km/s
True Right ascension
07h 43m 59s
True Declination
18° 56' 12"
Sunlit
Object was in full shadow at epoch
Visualization orbit readout
Latitude
Unknown
Longitude
Unknown
Altitude
Unknown
Speed
Unknown
Apparent Right ascension
Unknown
Apparent Declination
Unknown
Sunlit
N/A
Visualization observer readout
Local Sidereal Time
20:47:13
Azimuth
Unknown
Elevation
Unknown
Doppler factor
Unknown
Orbital elements
Apogee altitude
1,559.974 km
Perigee altitude
1,449.873 km
Semi-major axis
7,883.06 km
Eccentricity
0.00698
Inclination
102.0891°
RAAN
120.2124°
Arg. of periapsis
0.6089°
True anomaly
18.87227°
Mean anomaly
18.6147°
Eccentric anomaly
18.74327°
Mean motion
3.10099 °/min
Orbital period
116.09 mins
BSTAR
0.00048266
Loading maneuver chart data...
Computing Atmospheric mass density...
Loading historical data...
Loading historical data...
Loading historical data...
Loading historical data...
Loading historical data...
Loading historical data...
Loading historical data...

Documentation

Showing up to 5 results
|